KE5OYL Weather Reports


Display with metric or nautical units.
time (UTC)temp
F
wind
direction
speed
MPH
gust
MPH
rain 1hr
in
rain 24hr
in
rain mn
in
humidity
%
barometer
mb
20260509042356 73 47 2.0 3.0 0.00 0.00 0.00 80 1010.6
20260509041852 73 141 3.0 5.0 0.00 0.00 0.00 80 1010.9
20260509041349 73 52 2.0 2.0 0.00 0.00 0.00 81 1011.2
20260509040847 73 22 0.0 0.0 0.00 0.00 0.00 81 1011.3
20260509040345 73 22 0.0 2.0 0.00 0.00 0.00 81 1011.3
20260509035842 73 21 0.0 1.0 0.00 0.00 0.00 81 1011.3
20260509035339 73 18 0.0 3.0 0.00 0.00 0.00 81 1011.0
20260509034834 73 38 1.0 2.0 0.00 0.00 0.00 81 1010.7
20260509034333 73 98 3.0 3.0 0.00 0.00 0.00 80 1010.3
20260509033829 73 108 5.0 6.0 0.00 0.00 0.00 80 1010.2
20260509033327 73 62 3.0 5.0 0.00 0.00 0.00 80 1010.4
20260509032823 73 94 3.0 5.0 0.00 0.00 0.00 80 1010.7
20260509032320 73 97 2.0 5.0 0.00 0.00 0.00 80 1010.5
20260509031818 73 38 1.0 3.0 0.00 0.00 0.00 80 1010.5
20260509031315 73 52 2.0 5.0 0.00 0.00 0.00 80 1010.5
20260509030813 73 98 3.0 5.0 0.00 0.00 0.00 79 1010.3
20260509030311 73 146 5.0 8.0 0.00 0.00 0.00 79 1010.2
20260509025807 73 138 2.0 3.0 0.00 0.00 0.00 79 1010.1
20260509025306 73 100 2.0 6.0 0.00 0.00 0.00 79 1010.2
20260509024758 73 172 5.0 7.0 0.00 0.00 0.00 79 1010.2
20260509024255 73 203 4.0 6.0 0.00 0.00 0.00 79 1010.0
20260509023752 73 163 3.0 6.0 0.00 0.00 0.00 79 1010.0
20260509023249 73 158 2.0 6.0 0.00 0.00 0.00 79 1009.7
20260509022745 73 210 2.0 7.0 0.00 0.00 0.00 79 1009.7
20260509022243 73 127 5.0 8.0 0.00 0.00 0.00 78 1009.5
20260509021739 73 139 2.0 5.0 0.00 0.00 0.00 78 1009.4
20260509021237 73 126 3.0 5.0 0.00 0.00 0.00 78 1009.4
20260509020735 73 153 4.0 6.0 0.00 0.00 0.00 78 1009.4
20260509020232 73 183 3.0 5.0 0.00 0.00 0.00 77 1009.5
20260509015730 73 169 2.0 6.0 0.00 0.00 0.00 77 1009.5
20260509015228 73 167 3.0 5.0 0.00 0.00 0.00 77 1009.8
20260509014724 73 100 4.0 5.0 0.00 0.00 0.00 78 1009.4
20260509014221 73 141 4.0 6.0 0.00 0.00 0.00 77 1009.4
20260509013718 73 137 2.0 5.0 0.00 0.00 0.00 77 1009.8
20260509013213 73 183 2.0 5.0 0.00 0.00 0.00 77 1009.4
20260509012710 73 171 2.0 5.0 0.00 0.00 0.00 77 1009.7
20260509012207 73 198 3.0 5.0 0.00 0.00 0.00 77 1009.5
20260509011704 73 182 3.0 6.0 0.00 0.00 0.00 77 1009.5
20260509011202 73 6 1.0 2.0 0.00 0.00 0.00 77 1009.3
20260509010700 73 43 1.0 7.0 0.00 0.00 0.00 78 1009.0
20260509010155 73 136 5.0 5.0 0.00 0.00 0.00 77 1008.8
20260509005653 73 115 4.0 7.0 0.00 0.00 0.00 77 1008.7
20260509005150 73 47 3.0 5.0 0.00 0.00 0.00 77 1008.7
20260509004645 73 89 3.0 7.0 0.00 0.00 0.00 77 1008.6
20260509004143 73 87 3.0 6.0 0.00 0.00 0.00 77 1008.9
20260509003641 73 101 4.0 7.0 0.00 0.00 0.00 77 1008.6
20260509003138 73 71 5.0 6.0 0.00 0.00 0.00 76 1008.8
20260509002635 73 61 3.0 5.0 0.00 0.00 0.00 76 1008.8
20260509002132 73 64 3.0 5.0 0.00 0.00 0.00 76 1009.0
20260509001630 74 77 3.0 3.0 0.00 0.00 0.00 75 1008.8
20260509001126 74 140 5.0 7.0 0.00 0.00 0.00 74 1008.9
20260509000624 74 57 2.0 6.0 0.00 0.00 0.00 74 1008.8
20260509000120 73 39 3.0 6.0 0.00 0.00 0.00 75 1008.9
20260508235618 73 97 5.0 7.0 0.00 0.00 0.00 75 1009.0
20260508235114 73 153 4.0 6.0 0.00 0.00 0.00 75 1009.4
20260508234612 73 109 5.0 6.0 0.00 0.00 0.00 74 1009.4
20260508234108 74 215 4.0 8.0 0.00 0.00 0.00 74 1009.4
20260508233608 74 181 3.0 3.0 0.00 0.00 0.00 74 1009.3
20260508233105 73 77 2.0 5.0 0.00 0.00 0.00 75 1009.5
20260508232602 74 220 5.0 7.0 0.00 0.00 0.00 74 1009.3
20260508232058 74 109 3.0 7.0 0.00 0.00 0.00 74 1009.0
20260508231556 74 171 3.0 5.0 0.00 0.00 0.00 74 1009.2
20260508231053 74 127 5.0 7.0 0.00 0.00 0.00 73 1009.1
20260508230549 74 96 4.0 7.0 0.00 0.00 0.00 72 1009.1
20260508230046 73 38 1.0 6.0 0.00 0.00 0.00 73 1009.4
20260508225543 74 79 3.0 3.0 0.00 0.00 0.00 71 1009.3
20260508225040 74 115 6.0 10.0 0.00 0.00 0.00 72 1009.3
20260508224538 75 85 3.0 8.0 0.00 0.00 0.00 71 1009.2
20260508224035 75 3 1.0 6.0 0.00 0.00 0.00 69 1009.2
20260508223533 75 72 5.0 8.0 0.00 0.00 0.00 71 1009.3
20260508223030 74 208 4.0 6.0 0.00 0.00 0.00 70 1009.4
20260508222527 74 104 4.0 9.0 0.00 0.00 0.00 70 1009.5
20260508222024 75 130 4.0 9.0 0.00 0.00 0.00 69 1009.4
20260508221520 74 160 6.0 9.0 0.00 0.00 0.00 70 1009.5
20260508221016 73 203 5.0 8.0 0.00 0.00 0.00 69 1009.6
20260508220513 73 177 7.0 10.0 0.00 0.00 0.00 69 1009.4
20260508220009 73 178 5.0 13.0 0.00 0.00 0.00 70 1009.5
20260508215506 74 180 6.0 10.0 0.00 0.00 0.00 69 1009.6
20260508215003 73 149 3.0 10.0 0.00 0.00 0.00 69 1009.6
20260508214500 73 249 3.0 5.0 0.00 0.00 0.00 69 1009.7
20260508213956 74 198 7.0 11.0 0.00 0.00 0.00 69 1009.3
20260508213454 74 92 5.0 8.0 0.00 0.00 0.00 67 1009.7
20260508212949 73 160 7.0 11.0 0.00 0.00 0.00 70 1009.5
20260508212446 73 195 5.0 11.0 0.00 0.00 0.00 70 1009.6
20260508211942 73 203 3.0 9.0 0.00 0.00 0.00 72 1009.5
20260508211438 72 140 8.0 10.0 0.00 0.00 0.00 73 1009.4
20260508210935 71 172 8.0 11.0 0.00 0.00 0.00 75 1009.9
20260508210432 71 128 6.0 10.0 0.00 0.00 0.00 75 1009.3
20260508205928 71 63 2.0 6.0 0.00 0.00 0.00 74 1010.1
20260508205425 72 254 3.0 5.0 0.00 0.00 0.00 74 1010.1
20260508204921 72 145 5.0 8.0 0.00 0.00 0.00 72 1010.7
20260508204418 72 73 2.0 7.0 0.00 0.00 0.00 71 1010.6
20260508203908 72 129 3.0 6.0 0.00 0.00 0.00 70 1011.2
20260508203405 72 173 2.0 7.0 0.00 0.00 0.00 70 1011.0
20260508202901 72 190 5.0 7.0 0.00 0.00 0.00 70 1011.5
20260508202358 72 213 8.0 11.0 0.00 0.00 0.00 70 1011.4
20260508201855 73 221 6.0 8.0 0.00 0.00 0.00 70 1011.5
20260508201351 73 245 7.0 8.0 0.00 0.00 0.00 69 1011.4
20260508200848 73 195 2.0 6.0 0.00 0.00 0.00 69 1011.5
20260508200345 73 192 3.0 7.0 0.00 0.00 0.00 70 1011.4
20260508195840 73 142 3.0 8.0 0.00 0.00 0.00 69 1011.5
20260508195338 73 192 5.0 8.0 0.00 0.00 0.00 68 1011.4
20260508194834 74 238 5.0 7.0 0.00 0.00 0.00 68 1011.6
20260508194331 75 195 4.0 8.0 0.00 0.00 0.00 66 1011.3
20260508193828 75 81 3.0 6.0 0.00 0.00 0.00 66 1011.2
20260508193325 75 317 1.0 5.0 0.00 0.00 0.00 65 1011.3
20260508192820 74 230 3.0 7.0 0.00 0.00 0.00 66 1011.4
20260508192318 74 198 6.0 7.0 0.00 0.00 0.00 65 1011.4
20260508191815 74 195 4.0 9.0 0.00 0.00 0.00 67 1011.5
20260508191312 74 214 6.0 10.0 0.00 0.00 0.00 67 1011.9
20260508190804 74 203 5.0 13.0 0.00 0.00 0.00 67 1011.8
20260508190259 75 202 6.0 9.0 0.00 0.00 0.00 66 1011.6
20260508185756 74 163 8.0 14.0 0.00 0.00 0.00 67 1011.5
20260508185254 75 232 4.0 7.0 0.00 0.00 0.00 66 1011.8
20260508184750 75 221 3.0 8.0 0.00 0.00 0.00 65 1011.9
20260508184248 76 137 5.0 7.0 0.00 0.00 0.00 64 1011.6
20260508183745 76 84 3.0 6.0 0.00 0.00 0.00 63 1011.9
20260508183241 75 162 3.0 9.0 0.00 0.00 0.00 65 1012.2
20260508182737 75 196 3.0 7.0 0.00 0.00 0.00 64 1012.0
20260508182234 75 139 3.0 7.0 0.00 0.00 0.00 63 1012.2
20260508181730 75 90 5.0 8.0 0.00 0.00 0.00 62 1012.2
20260508181227 76 87 4.0 10.0 0.00 0.00 0.00 61 1012.3
20260508180723 76 45 2.0 9.0 0.00 0.00 0.00 64 1012.4
20260508180220 74 89 3.0 5.0 0.00 0.00 0.00 65 1012.5
20260508175717 74 122 4.0 8.0 0.00 0.00 0.00 65 1012.7
20260508175214 75 136 5.0 8.0 0.00 0.00 0.00 64 1012.6
20260508174712 74 205 4.0 6.0 0.00 0.00 0.00 64 1012.8
20260508174208 74 171 5.0 8.0 0.00 0.00 0.00 65 1012.6
20260508173704 74 130 6.0 8.0 0.00 0.00 0.00 65 1013.2
20260508173200 74 201 3.0 9.0 0.00 0.00 0.00 64 1013.0
20260508172658 72 193 6.0 8.0 0.00 0.00 0.00 67 1013.4
20260508172155 74 130 6.0 7.0 0.00 0.00 0.00 63 1013.2
20260508171651 72 75 3.0 6.0 0.00 0.00 0.00 67 1013.2
20260508171147 73 71 2.0 5.0 0.00 0.00 0.00 65 1013.1
20260508170645 71 142 4.0 6.0 0.00 0.00 0.00 67 1013.4
20260508170142 71 111 6.0 7.0 0.00 0.00 0.00 66 1013.3
20260508165639 71 258 3.0 8.0 0.00 0.00 0.00 68 1013.7
20260508165136 71 199 4.0 9.0 0.00 0.00 0.00 67 1013.9
20260508164633 71 48 3.0 7.0 0.00 0.00 0.00 67 1014.0
20260508164130 71 33 2.0 8.0 0.00 0.00 0.00 67 1014.2
20260508163627 72 160 6.0 8.0 0.00 0.00 0.00 65 1014.1
20260508163124 72 167 3.0 6.0 0.00 0.00 0.00 65 1014.2
20260508162614 72 105 4.0 7.0 0.00 0.00 0.00 65 1014.3
20260508162112 71 86 2.0 6.0 0.00 0.00 0.00 67 1014.2
20260508161608 70 208 3.0 9.0 0.00 0.00 0.00 68 1014.2
20260508161106 70 170 5.0 7.0 0.00 0.00 0.00 67 1014.3
20260508160604 70 138 3.0 6.0 0.00 0.00 0.00 68 1014.5
20260508155558 69 149 3.0 7.0 0.00 0.00 0.00 69 1014.6
20260508155055 69 213 6.0 7.0 0.00 0.00 0.00 69 1014.7
20260508154552 69 147 3.0 5.0 0.00 0.00 0.00 68 1014.6
20260508154049 69 163 4.0 6.0 0.00 0.00 0.00 67 1014.7
20260508153546 69 144 5.0 6.0 0.00 0.00 0.00 66 1014.8
20260508153042 69 168 3.0 5.0 0.00 0.00 0.00 68 1014.7
20260508152540 68 128 4.0 6.0 0.00 0.00 0.00 68 1015.0
20260508152034 68 135 3.0 5.0 0.00 0.00 0.00 68 1015.3
20260508151532 68 120 2.0 5.0 0.00 0.00 0.00 68 1015.0
20260508151028 68 50 1.0 5.0 0.00 0.00 0.00 69 1015.0
20260508150526 68 171 6.0 7.0 0.00 0.00 0.00 68 1015.0
20260508150021 68 51 4.0 8.0 0.00 0.00 0.00 68 1014.9
20260508145518 68 49 2.0 6.0 0.00 0.00 0.00 68 1014.9
20260508145014 68 129 4.0 7.0 0.00 0.00 0.00 68 1015.1
20260508144512 68 185 5.0 8.0 0.00 0.00 0.00 67 1015.0
20260508144009 67 55 5.0 6.0 0.00 0.00 0.00 68 1015.0
20260508143507 67 63 2.0 9.0 0.00 0.00 0.00 68 1015.1
20260508143003 67 140 5.0 8.0 0.00 0.00 0.00 69 1014.9
20260508142501 66 211 2.0 7.0 0.00 0.00 0.00 71 1015.1
20260508141956 66 132 5.0 8.0 0.00 0.00 0.00 71 1015.1
20260508141453 66 77 4.0 8.0 0.00 0.00 0.00 70 1015.3
20260508140952 66 88 4.0 8.0 0.00 0.00 0.00 70 1015.4
20260508140448 66 160 4.0 9.0 0.00 0.00 0.00 71 1015.3
20260508135943 67 127 4.0 6.0 0.00 0.00 0.00 70 1015.2
20260508135440 66 49 2.0 5.0 0.00 0.00 0.00 70 1015.3
20260508134937 66 161 5.0 7.0 0.00 0.00 0.00 71 1015.4
20260508134433 66 125 7.0 11.0 0.00 0.00 0.00 70 1015.5
20260508133930 66 52 2.0 6.0 0.00 0.00 0.00 71 1015.6
20260508133428 66 169 5.0 6.0 0.00 0.00 0.00 70 1015.3
20260508132924 66 40 1.0 5.0 0.00 0.00 0.00 71 1015.5
20260508132423 66 32 1.0 3.0 0.00 0.00 0.00 71 1015.2
20260508131919 66 41 2.0 5.0 0.00 0.00 0.00 73 1015.2
20260508131414 65 74 3.0 5.0 0.00 0.00 0.00 74 1015.2
20260508130912 65 43 1.0 3.0 0.00 0.00 0.00 75 1015.4
20260508130408 64 56 2.0 3.0 0.00 0.00 0.00 76 1015.3
20260508125904 64 26 2.0 3.0 0.00 0.00 0.00 77 1015.4
20260508125400 64 42 2.0 5.0 0.00 0.00 0.00 78 1015.6
20260508124858 64 29 1.0 3.0 0.00 0.00 0.00 78 1015.5
20260508124356 63 27 1.0 2.0 0.00 0.00 0.00 79 1015.6
20260508123854 63 31 0.0 3.0 0.00 0.00 0.00 81 1015.3
20260508123352 62 34 0.0 2.0 0.00 0.00 0.00 82 1015.2
20260508122848 62 37 1.0 3.0 0.00 0.00 0.00 83 1015.4
20260508122345 62 45 2.0 3.0 0.00 0.00 0.00 82 1015.3
20260508121842 62 31 0.0 1.0 0.00 0.00 0.00 83 1015.2
20260508121340 61 55 2.0 5.0 0.00 0.00 0.00 83 1015.3
20260508120837 61 31 1.0 2.0 0.00 0.00 0.00 84 1015.6
20260508120335 61 30 0.0 1.0 0.00 0.00 0.00 84 1015.4
20260508115832 61 29 1.0 1.0 0.00 0.00 0.00 84 1015.4
20260508115330 61 39 1.0 2.0 0.00 0.00 0.00 83 1015.4
20260508114826 62 71 3.0 3.0 0.00 0.00 0.00 83 1015.5
20260508114323 62 34 1.0 3.0 0.00 0.00 0.00 83 1015.6
20260508113820 62 31 0.0 2.0 0.00 0.00 0.00 82 1015.3
20260508113318 62 52 1.0 3.0 0.00 0.00 0.00 82 1015.5
20260508112814 62 84 3.0 3.0 0.00 0.00 0.00 81 1015.6
20260508112312 62 42 1.0 3.0 0.00 0.00 0.00 81 1015.8
20260508111808 62 54 2.0 3.0 0.00 0.00 0.00 81 1015.5
20260508111305 61 356 1.0 1.0 0.00 0.00 0.00 82 1015.9
20260508110802 61 352 1.0 3.0 0.00 0.00 0.00 84 1016.0
20260508110300 61 354 1.0 2.0 0.00 0.00 0.00 85 1015.7
20260508105759 61 338 1.0 1.0 0.00 0.00 0.00 86 1015.7
20260508105256 61 337 0.0 1.0 0.00 0.00 0.00 86 1015.5
20260508104753 61 204 1.0 1.0 0.00 0.00 0.00 86 1015.5
20260508104250 60 188 0.0 1.0 0.00 0.00 0.00 87 1015.1
20260508103748 61 188 0.0 0.0 0.00 0.00 0.00 86 1014.9
20260508103244 61 196 0.0 1.0 0.00 0.00 0.00 86 1014.7
20260508102742 61 95 2.0 2.0 0.00 0.00 0.00 86 1014.3
20260508102240 61 105 2.0 3.0 0.00 0.00 0.00 86 1014.4
20260508101737 61 34 1.0 1.0 0.00 0.00 0.00 85 1014.5
20260508101234 61 48 2.0 3.0 0.00 0.00 0.00 85 1014.4
20260508100732 61 53 2.0 3.0 0.00 0.00 0.00 84 1014.4
20260508100230 61 56 2.0 3.0 0.00 0.00 0.00 84 1014.5
20260508095725 61 58 2.0 2.0 0.00 0.00 0.00 84 1014.7
20260508095224 61 28 0.0 1.0 0.00 0.00 0.00 85 1014.8
20260508094720 61 28 0.0 0.0 0.00 0.00 0.00 84 1014.9
20260508094217 61 54 2.0 3.0 0.00 0.00 0.00 84 1014.6
20260508093714 61 20 0.0 1.0 0.00 0.00 0.00 85 1014.6
20260508093212 61 20 0.0 0.0 0.00 0.00 0.00 84 1014.9
20260508092708 61 24 0.0 0.0 0.00 0.00 0.00 84 1014.8
20260508092207 61 34 1.0 2.0 0.00 0.00 0.00 84 1014.7
20260508091704 62 40 1.0 3.0 0.00 0.00 0.00 84 1014.6
20260508091201 62 44 2.0 2.0 0.00 0.00 0.00 84 1014.9
20260508090659 62 25 0.0 2.0 0.00 0.00 0.00 84 1014.9
20260508090156 62 15 1.0 2.0 0.00 0.00 0.00 84 1014.8
20260508085652 62 37 2.0 3.0 0.00 0.00 0.00 84 1014.8
20260508085149 62 47 2.0 6.0 0.00 0.00 0.00 83 1014.7
20260508084645 62 68 3.0 5.0 0.00 0.00 0.00 82 1014.6
20260508084143 63 111 4.0 7.0 0.00 0.00 0.00 81 1014.7
20260508083640 63 111 4.0 5.0 0.00 0.00 0.00 80 1015.0
20260508083138 64 86 5.0 5.0 0.00 0.00 0.00 78 1015.2
20260508082632 64 74 3.0 3.0 0.00 0.00 0.00 78 1015.4
20260508082130 64 59 3.0 3.0 0.00 0.00 0.00 77 1015.6
20260508081628 64 29 0.0 2.0 0.00 0.00 0.00 77 1015.6
20260508081124 64 48 2.0 2.0 0.00 0.00 0.00 77 1015.7
20260508080621 64 44 1.0 2.0 0.00 0.00 0.00 77 1015.8
20260508080120 63 11 0.0 0.0 0.00 0.00 0.00 78 1016.1
20260508075615 63 11 0.0 0.0 0.00 0.00 0.00 78 1016.0
20260508075112 63 11 0.0 0.0 0.00 0.00 0.00 78 1016.1
20260508074610 63 11 0.0 0.0 0.00 0.00 0.00 78 1016.1
20260508074107 63 11 1.0 1.0 0.00 0.00 0.00 78 1016.0
20260508073604 63 36 0.0 2.0 0.00 0.00 0.00 78 1015.7
20260508073102 63 23 1.0 1.0 0.00 0.00 0.00 78 1016.0
20260508072557 63 31 0.0 2.0 0.00 0.00 0.00 78 1015.8
20260508072055 63 23 1.0 1.0 0.00 0.00 0.00 78 1015.7
20260508071553 63 24 0.0 1.0 0.00 0.00 0.00 78 1015.8
20260508071050 63 24 1.0 1.0 0.00 0.00 0.00 79 1015.7
20260508070548 63 32 2.0 2.0 0.00 0.00 0.00 79 1015.6
20260508070046 64 41 2.0 2.0 0.00 0.00 0.00 78 1015.6
20260508065543 64 24 0.0 1.0 0.00 0.00 0.00 77 1015.8
20260508065041 64 35 0.0 2.0 0.00 0.00 0.00 77 1015.6
20260508064538 64 34 1.0 1.0 0.00 0.00 0.00 77 1015.9
20260508064036 64 49 1.0 2.0 0.00 0.00 0.00 77 1016.0
20260508063533 64 14 0.0 1.0 0.00 0.00 0.00 77 1016.1
20260508063032 64 347 1.0 1.0 0.00 0.00 0.00 77 1016.2
20260508062529 64 10 2.0 2.0 0.00 0.00 0.00 77 1016.4
20260508062025 64 22 1.0 1.0 0.00 0.00 0.00 77 1016.3
20260508061523 64 35 1.0 2.0 0.00 0.00 0.00 77 1016.5
20260508061019 64 36 1.0 2.0 0.00 0.00 0.00 77 1016.4
20260508060516 64 38 1.0 2.0 0.00 0.00 0.00 76 1016.4
20260508060014 64 68 2.0 2.0 0.00 0.00 0.00 76 1016.6
20260508055509 64 69 2.0 2.0 0.00 0.00 0.00 76 1016.5
20260508055006 64 13 1.0 1.0 0.00 0.00 0.00 75 1016.3
20260508054503 64 347 0.0 2.0 0.00 0.00 0.00 75 1016.1
20260508054000 64 351 1.0 2.0 0.00 0.00 0.00 75 1016.6
20260508053457 64 4 1.0 1.0 0.00 0.00 0.00 74 1016.3
20260508052955 64 349 2.0 2.0 0.00 0.00 0.00 74 1016.1
20260508052452 64 24 0.0 1.0 0.00 0.00 0.00 73 1016.4
20260508051948 64 33 0.0 1.0 0.00 0.00 0.00 73 1016.3
20260508051444 64 71 2.0 2.0 0.00 0.00 0.00 73 1016.3
20260508050940 65 23 1.0 2.0 0.00 0.00 0.00 73 1016.6
20260508050437 65 44 2.0 3.0 0.00 0.00 0.00 72 1016.3
20260508045933 65 69 2.0 2.0 0.00 0.00 0.00 72 1016.2
20260508045431 65 89 2.0 3.0 0.00 0.00 0.00 72 1016.4
20260508044928 65 55 2.0 3.0 0.00 0.00 0.00 72 1016.2
20260508044425 65 7 0.0 0.0 0.00 0.00 0.00 72 1016.3
20260508043920 65 34 1.0 2.0 0.00 0.00 0.00 72 1016.4
20260508043418 65 38 1.0 2.0 0.00 0.00 0.00 71 1016.5
20260508042914 65 33 1.0 2.0 0.00 0.00 0.00 71 1016.5